Вернуться в каталог

ARIANE 44LP DEB

АктивенGTO
NORAD 33547·DEBRIS·🇫🇷 France

Запущен Dec 11, 1988 с Guiana Space Centre

Loading…

TLE

УстаревшееSource: Space-Track

Эпоха: Sep 11, 2026, 22:00 UTC

1 33547U 88109W   26254.91694416  .00000087  00000-0  42215-2 0  9998
2 33547   6.4631 180.5077 7018992 166.3749 232.8582  2.40116788226472

Отслеживайте ARIANE 44LP DEB в реальном времени с AllMySat

Download on the App Store